Regional Weather Roundup
Issued by NWS

Home | Current Version | Previous Version | Text Only | Print | Product List | Glossary On
Versions: 1 2 3 4 5 6 7 8 9 10 11 12 13 14 15 16 17 18 19 20 21 22 23 24 25 26 27 28 29 30 31 32 33 34 35 36 37 38 39 40 41 42 43 44 45 46 47 48 49 50
000
ASUS43 KTOP 201608
RWRKS

WEATHER ROUNDUP FOR KANSAS
NATIONAL WEATHER SERVICE GOODLAND KS
1100 AM CDT WED AUG 20 2014

NOTE:  "FAIR" INDICATES FEW OR NO CLOUDS BELOW 12,000 FEET WITH NO
SIGNIFICANT WEATHER AND/OR OBSTRUCTIONS TO VISIBILITY.

KSZ001>006-013>018-027>032-041>047-201700-
NORTHWEST KANSAS

CITY           SKY/WX    TMP DP  RH WIND       PRES   REMARKS
GOODLAND       SUNNY     85  59  41 W7        29.83S
HAYS           SUNNY     88  66  48 S16       29.81S
HILL CITY      SUNNY     86  66  51 S14       29.79S
RUSSELL        SUNNY     86  67  52 S12       29.81S
$$

KSZ061>065-074>080-084>089-201700-
SOUTHWEST KANSAS

CITY           SKY/WX    TMP DP  RH WIND       PRES   REMARKS
DODGE CITY     SUNNY     84  65  52 S20G26    29.86R
ELKHART          N/A     82  62  50 S9          N/A
GARDEN CITY    SUNNY     84  65  52 S14G21    29.84R
GREAT BEND     SUNNY     86  66  51 S17G24    29.83R
LIBERAL        SUNNY     86  64  48 S21       29.88S
PRATT          SUNNY     82  63  51 S20G25    29.87S
$$

KSZ066>073-081>083-090>101-201700-
SOUTHEAST KANSAS

CITY           SKY/WX    TMP DP  RH WIND       PRES   REMARKS
CHANUTE        SUNNY     88  67  49 SW12      29.92S
COFFEYVILLE    MOSUNNY   86  71  60 S15       29.92S
HUTCHINSON     SUNNY     87  66  49 S23       29.86S
MEDICINE LODGE   N/A     87  67  51 S16       29.85S
NEWTON         MOSUNNY   84  64  51 S18       29.91S
PARSONS        MOSUNNY   86  70  58 S15G21    29.94R
WICHITA INTL   MOSUNNY   87  66  49 S17       29.87R
WICHITA JABRA  SUNNY     85  67  54 SW16      29.88S
WICHITA MCCONL SUNNY     85  69  58 S16       29.89R
WINFIELD       SUNNY     86  70  58 S14       29.91R
$$

KSZ007>012-019>026-033>040-048>060-102>105-201700-
NORTHEAST KANSAS

CITY           SKY/WX    TMP DP  RH WIND       PRES   REMARKS
CONCORDIA      SUNNY     83  71  67 S14       29.82S
EMPORIA        SUNNY     87  68  52 S16       29.89S
LAWRENCE       SUNNY     89  71  55 SW13      29.88S HX  95
MANHATTAN      SUNNY     88  69  53 S13       29.84S
MARYSVILLE     SUNNY     86  70  58 SW13      29.84R
OLATHE IND     SUNNY     87  70  56 S12       29.91S
OLATHE EXE     SUNNY     85  70  60 SW10G20   29.90S
SALINA         SUNNY     86  69  56 S16       29.83S
TOPEKA BILLARD SUNNY     87  71  58 S10       29.87S
TOPEKA FORBES  SUNNY     88  69  53 S13       29.88S
$$



USA.gov is the U.S. government's official web portal to all federal, state and local government web resources and services.